Meling Ranch Airstrip

Jump to: basic info | weather | comments

Related pages: nearby airports | nearby navaids

Basic information (top)

Codes: MSJG
Location: lon 30.975328, lat -115.737877
Status: small_airport

Weather (top)

Current conditions for General Rodolfo Sánchez Taboada International Airport 103nm (190km) NNE (rec'd 2014/10/25 02:40Z):

MMML 250240Z 15004KT 10SM SKC 28/06 A2989 RMK SLP122 52007 900

Airport forecast for General Rodolfo Sánchez Taboada International Airport 103nm (190km) NNE (rec'd 2014/10/23 18:25Z):

TAF MMML 231706Z 2318/2418 30010KT P6SM SCT200 
     FM240100 00000KT P6SM SKC 
      BECMG 2417/2418 22010KT

Latest comments (top)

No comments yet for Meling Ranch Airstrip

More... (top)

See also NOTAMs and nearby airports and navaids, or visit the Meling Ranch Airstrip page at the main OurAirports website..